Regional Weather Roundup
Issued by NWS Northern Indiana

Home | Current Version | Previous Version | Graphics & Text | Print | Product List | Glossary On
Versions: 1 2 3 4 5 6 7 8 9 10 11 12 13 14 15 16 17 18 19 20 21 22 23 24 25 26 27 28 29 30 31 32 33 34 35 36 37 38 39 40 41 42 43 44 45 46 47 48 49 50
000
ASUS43 KIWX 061910
RWRIWX

KIWX WEATHER ROUNDUP
NATIONAL WEATHER SERVICE NORTHERN INDIANA
300 PM EDT FRI MAY 06 2016

NOTE: "FAIR" INDICATES FEW OR NO CLOUDS BELOW 12,000 FEET WITH NO
SIGNIFICANT WEATHER AND/OR OBSTRUCTIONS TO VISIBILITY.

* THESE STATIONS ARE NOT UNDER NWS QUALITY CONTROL. THEY ALSO MAY NOT
  REPORT WEATHER SUCH AS PRECIPITATION OR FOG.

INZ001>027-062000-
NORTHERN INDIANA

CITY           SKY/WX    TMP DP  RH WIND       PRES   REMARKS
GARY*          MOSUNNY   75  48  38 S12       29.91F
VALPARAISO     MOSUNNY   73  40  30 SW10      29.93F
MICHIGAN CITY* SUNNY     72  43  35 W3        29.92F
LAPORTE*       SUNNY     73  39  29 S6        29.94F
KNOX*          SUNNY     72  25  17 SW8         N/A
SOUTH BEND     SUNNY     70  37  29 NW5       29.94F
GOSHEN         SUNNY     68  47  46 W9        29.94F
MONTICELLO*    SUNNY     71  31  22 W5        29.95F
LOGANSPORT*    SUNNY     68  41  37 W8        29.96F
ROCHESTER*     SUNNY     72  41  33 N3        29.95F
WARSAW*        SUNNY     68  41  37 NW7       29.94F
ANGOLA*          N/A     70  36  28 VRB3      29.93F
FORT WAYNE     MOSUNNY   69  38  32 W7        29.95F
HUNTINGTON*    SUNNY    N/A N/A N/A CALM      29.95F
PERU/GRISSOM   SUNNY     69  41  35 VRB1      29.94F
MARION*        SUNNY     67  39  36 NW9       29.96F

$$
INZ028>050-062000-
CENTRAL INDIANA

CITY           SKY/WX    TMP DP  RH WIND       PRES   REMARKS
LAFAYETTE      MOSUNNY   70  39  32 CALM      29.96F
KOKOMO*        SUNNY     70  43  37 NW7       29.95F
MUNCIE*        SUNNY     68  40  35 W9G18     29.96F
INDIANAPOLIS   MOSUNNY   69  40  34 NW14      29.97F

$$
MIZ043>046-050>051-056>058-064>065-071>073-077>080-062000-
SOUTHWEST LOWER MICHIGAN

CITY           SKY/WX    TMP DP  RH WIND       PRES   REMARKS
BATTLE CREEK   SUNNY     69  37  30 W6        29.92F
BENTON HARBOR  SUNNY     69  39  33 SW7       29.92F
COLDWATER*     SUNNY     69  36  29 NW3       29.93F
HILLSDALE*     MOSUNNY   68  35  29 W10       29.92F
HOLLAND        SUNNY     69  40  34 W7        29.92F
GRAND RAPIDS   MOSUNNY   72  42  34 W8        29.91F
KALAMAZOO      SUNNY     71  39  31 CALM      29.92F
STURGIS*       SUNNY     68  42  37 W7        29.92F
THREE RIVERS*  FAIR      71  39  30 W5        29.93F

$$
OHZ001>008-015>018-024>025-062000-
NORTHWEST OHIO

CITY           SKY/WX    TMP DP  RH WIND       PRES   REMARKS
WAUSEON*         N/A     70 -38   1 VRB6      29.91F
DEFIANCE       SUNNY     69  43  38 VRB7      29.92F
FINDLAY        SUNNY     70  39  32 N9        29.91F
TOLEDO EXPRESS SUNNY     69  39  33 CALM      29.91F
TOLEDO METCALF MOSUNNY   70  42  36 CALM      29.91F
LIMA           SUNNY     66  43  43 NW13      29.93F

$$
AND FOR LAKE MICHIGAN COASTAL AND OPEN LAKE BUOY OBSERVATIONS

STATION/POSITION TEMP    WIND        PRES    VSBY  WAVE
                 AIR SEA DIR/SP/G                  HT/PER
                 (F)     (DEG/KT/KT) (MB)    (MI)  (FT/S)
CALUMET HARBOR    71     180/  9/ 11 1012.6F
MICHIGAN CITY     67      CALM  /  1   N/A
BURNS HARBOR      67      70/  3/  4 1014.2F
SAINT JOSEPH      57     180/  7/  8 1014.2F
SOUTH LAKE BUOY   45 41  150/ 12/ 14 1012.3F         1
4 MI NW BRIDGMAN  55 33                N/A           1

$$
&&



USA.gov is the U.S. government's official web portal to all federal, state and local government web resources and services.